Regional Weather Roundup
Issued by NWS

Home | Current Version | Previous Version | Text Only | Print | Product List | Glossary On
Versions: 1 2 3 4 5 6 7 8 9 10 11 12 13 14 15 16 17 18 19 20 21 22 23 24 25 26 27 28 29 30 31 32 33 34 35 36 37 38 39 40 41 42 43 44 45 46 47 48 49 50
000
ASHW40 PHFO 232143
RWRHI

WEATHER ROUNDUP FOR HAWAII
NATIONAL WEATHER SERVICE HONOLULU HI
1100 AM HST TUE AUG 23 2016

THIS IS AN AUTOMATED REPORT THAT HAS NOT BEEN QUALITY CONTROLLED.

NOTE..."FAIR" INDICATES FEW OR NO CLOUDS BELOW 12,000 FEET WITH NO
SIGNIFICANT WEATHER AND/OR OBSTRUCTIONS TO VISIBILITY.

* - THESE SITES REPORT LIMITED FIELDS

HIZ001>004-232200-
KAUAI-NIIHAU-

CITY           SKY/WX    TMP DP  RH WIND       PRES   REMARKS
LIHUE APT      MOSUNNY   85  74  69 E15       29.93F HX  92
PORT ALLEN*      N/A     84 N/A N/A E17         N/A
POIPU*           N/A     82 N/A N/A E7G14       N/A
PRINCEVILLE*     N/A     79 N/A N/A SE8G14      N/A
KOKOLE POINT*  NOT AVBL
MOLOAA DAIRY*    N/A     82  72  69 E10G17      N/A
WAIMEA HTS*      N/A     84  72  65 E10G18      N/A
PUU OPAE*        N/A     79  70  73 S9G15       N/A
PUU LUA*       NOT AVBL
MAKAHA RIDGE*    N/A     75  72  88 N1G8        N/A
$$

HIZ005>011-232200-
OAHU-

CITY           SKY/WX    TMP DP  RH WIND       PRES   REMARKS
HONOLULU       CLOUDY    82  73  74 N6        29.91F
KALAELOA       CLOUDY    84  72  67 NE6       29.93F
KANEOHE MCB    CLOUDY    83  74  74 E6        29.90F
WHEELER FIELD  FAIR      79  74  83 SE5       29.95F
BELLOWS*         N/A    N/A N/A N/A NE10        N/A
KAHUKU*          N/A    N/A N/A N/A VRB1        N/A
WHEELER*         N/A    N/A N/A N/A SE5         N/A
WAIANAE HARBOR NOT AVBL
DILLINGHAM*      N/A     81  72  74 MISG        N/A
KAHUKU TRN*      N/A     81  75  83 MISG        N/A
KAWAILOA*        N/A     79  70  73 E3G9        N/A
KII*             N/A     82  75  78 E13G18      N/A
MAKUA RANGE*     N/A     73  64  73 SE3         N/A
OAHU FOREST NW   N/A     73  70  88 E14G21      N/A
SCHOFIELD BRK*   N/A     79  72  78 MISG        N/A
SCHOFIELD S*   NOT AVBL
WAIANAE VLY*   NOT AVBL
KUAOKALA*        N/A     79  72  78 N3          N/A
HONOULIUULI*   NOT AVBL
MOKUOLOE IS*   NOT AVBL
PALEHUA*         N/A     73  72  94 NE2G12      N/A
WAIAWA PHB*    NOT AVBL
$$

HIZ012>013-232200-
MOLOKAI-

CITY           SKY/WX    TMP DP  RH WIND       PRES   REMARKS
MOLOKAI AIRPT  CLOUDY    91  71  51 VRB7      29.92F HX  97
KALAUPAPA      NOT AVBL
MAKAPULAPAI*     N/A     84  73  70 E17G25      N/A  HX  91
MOLOKAI 1*     NOT AVBL
PUU ALII*        N/A     71  69  92 NE1         N/A
$$

HIZ016-232200-
KAHOOLAWE-

CITY           SKY/WX    TMP DP  RH WIND       PRES   REMARKS
KAHOOLAWE*       N/A     77 N/A N/A SE1         N/A
HAKIOAWA*        N/A     81  74  78 MISG      30.32F
HONOKANAIA*      N/A     86  74  67 E18G33    29.87R HX  94
KANELOA*         N/A     81  73  78 E18G31    30.01R
KEALIALALO*    NOT AVBL
LUA MAKIKA*    NOT AVBL
$$

HIZ014>015-232200-
LANAI-

CITY           SKY/WX    TMP DP  RH WIND       PRES   REMARKS
LANAI CITY     PTSUNNY   82  73  74 S7        29.97F
LANAI 1*       NOT AVBL
$$

HIZ017>028-232200-
MAUI-

CITY           SKY/WX    TMP DP  RH WIND       PRES   REMARKS
KAHULUI        CLOUDY    89  72  56 VRB6      29.90F HX  96
KAPALUA-W MAUI PTSUNNY   84  72  65 VRB6      29.93F
HANA AIRPORT     N/A     82  77  83 SE8       29.94F HX  91
HANA*            N/A     81 N/A N/A E8G17       N/A
HALEAKALA SUMM   N/A     57  50  77 S3G18       N/A
MAALAEA BAY*     N/A     90 N/A N/A SW6G12      N/A
HALEAKALA*     NOT AVBL
KAUPO GAP*       N/A     75  72  88 S5G12       N/A
KULA 1*          N/A     64  60  88 NW3         N/A
$$

HIZ023>026-232200-
BIG ISLAND OF HAWAII COAST AND LOWER SLOPES-

CITY           SKY/WX    TMP DP  RH WIND       PRES   REMARKS
KAILUA KONA    MOSUNNY   86  74  67 SW9       29.89F HX  94
HILO           LGT RAIN  79  75  89 SW3       29.95S FOG
HONOKAA*         N/A     77 N/A N/A VRB1        N/A
KAWAIHAE MWT*    N/A     84 N/A N/A W8          N/A
KAWAIHAE*        N/A     82 N/A N/A W7        29.90F
SOUTH POINT*     N/A     79 N/A N/A N17G25      N/A
UPOLU AIRPORT* NOT AVBL
KAMUELA*         N/A     84  66  54 CALM      30.03F
HAKALAU*         N/A     69  62  79 S7G16       N/A
KALOKO-HONOKO*   N/A     88  75  66 W7        29.88  HX  97
PALI 2*          N/A     70  70 100 NW9         N/A
KEALAKOMO*       N/A     79  75  89 N8          N/A
KAUPULEHU*       N/A     81  70  69 VRB9G16     N/A
KAPAPALA*        N/A     77  73  87 E5          N/A
LOWER KAHUKU*    N/A     73  66  78 NE3G12      N/A
PUHE CS*         N/A     82  72  69 W6          N/A
PUHO CS*         N/A     87  74  64 W3G10       N/A  HX  95
PTA KEAMUKU*     N/A     75  66  73 CALM        N/A
WAIKOLOA*        N/A     84  72  65 W5G10       N/A
$$

HIZ027>028-232200-
BIG ISLAND OF HAWAII INTERIOR AND SUMMMITS-

CITY           SKY/WX    TMP DP  RH WIND       PRES   REMARKS
BRADSHAW FIELD CLOUDY    71  58  64 W8        30.29F
MK VISITOR CEN   N/A     54  50  87 S5          N/A
MAUNA KEA*       N/A     41  37  87 NW1         N/A
MAUNA LOA*       N/A     48  45  87 MISG        N/A
MAUNA LOA 1*   NOT AVBL
PTA KIPUKA*      N/A     73  68  83 NW6G13      N/A
PTA RANGE 17*    N/A     70  59  68 NW12        N/A
PTA WEST*        N/A     59  52  77 NW10G17     N/A
NENE CABIN*      N/A     61  59  94 SE3G12      N/A
AHUMOA*          N/A     65  62  90 NW6G12      N/A
PTA PORTABLE*  NOT AVBL
PUU MALI*        N/A     64  63  94 N6G12       N/A
$$

HIC003-232200-
NORTHWEST ISLANDS-

CITY           SKY/WX    TMP DP  RH WIND       PRES   REMARKS
MIDWAY ISLAND  CLOUDY    81  72  74 NE14G20   29.94R
MIDWAY NOS*      N/A     79 N/A N/A MISG      29.92S
FRENCH FRIGATE NOT AVBL
$$

PHZ110>124-180-232200-
BUOY REPORTS

STATION/POSITION TIME  TEMP    WIND        PRES    WAVE   SWELL
                       AIR SEA DIR/SP/G            HT/PER HT/DIR
                 (UTC) (F)     (DEG/KT/KT) (MB)    (FT/S) (FT/D)
BUOY 51001       NOT AVBL
BUOY 51101       2050   80 80  120/ 14/ 16 1012.7F   5/10   3/110
BUOY 51100       NOT AVBL
BUOY 51002       NOT AVBL
BUOY 51003       2050   81 84   80/  4/  6 1012.7R   4/11   3/ 70
BUOY 51004       2050   81 82   80/ 16/ 17 1013.3F   6/11   5/ 70
BARBERS PT BUOY  NOT AVBL
WAIMEA BAY BUOY  2104      81                N/A     4/11   2/ 40
KAILUA BAY BUOY  2111      81                N/A     5/10   2/ 40
LANAI BUOY       2115      83                N/A     3/17   2/210
BARBERS PT 2     NOT AVBL
PAUWELA MAUI     2009      81                N/A     5/11   2/ 30
HILO             2112      80                N/A     5/11   2/ 40
KANEOHE BAY BUOY 2106      80                N/A     5/11   2/ 40
HANALEI KAUAI    NOT AVBL
KAHULUI HARBOR   2100   83 81   30/  9/ 13 1012.4F
HONOLULU HARBOR  2100   83 82  100/  4/  6 1013.7F
KILO NALU        NOT AVBL
HILO HARBOR      2100   78 79  160/  3/  5 1013.7F
MOKUOLOE         2000   82 82  100/  9/ 12 1013.7R
NAWILIWILI       2100   80      90/ 12/ 15 1013.4F
WHOTS BUOY       NOT AVBL
BUOY 51028       NOT AVBL
$$

......................KEY........................................
  SKY/WX - SKY CONDITIONS/PRESENT WEATHER
  TMP    - TEMPERATURE IN FAHRENHEIT
  DWPT   - DEWPOINT IN FAHRENHEIT
  RH     - RELATIVE HUMIDITY IN PERCENT
  WIND   - DIRECTION AND SPEED /MPH FOR ISLANDS...KTS FOR BUOYS/
  PRES   - MEAN SEA LEVEL PRESSURE IN INCHES OF HG
  VSB    - VISIBILITY IN MILES
  HX     - HEAT INDEX
  WCI    - WIND CHILL INDEX
  VRB    - VARIABLE WIND DIRECTION
  N/A    - NOT AVAILABLE



USA.gov is the U.S. government's official web portal to all federal, state and local government web resources and services.